User: anonymous   Login
Location: Unspecified
(0.0000°N, 0.0000°E)
Time: 23:48:59
(UTC+00:00)
Language:

NANOSAT-1 - Orbit

View from above orbital plane
View from above orbital plane
View from above satellite
View from above satellite

Ground track
Ground track

The orbit data is extracted from the following two-line orbital elements,

1 28493U 04049B   17349.36287852  .00000093  00000-0  22303-4 0  9994
2 28493  98.1849  60.6417 0005453 134.5762 225.5891 14.73378782697606
Epoch (UTC): 15 December 2017 08:42:32
Eccentricity: 0.0005453
inclination: 98.1849°
perigee height: 646 km
apogee height: 654 km
right ascension of ascending node: 60.6417°
argument of perigee: 134.5762°
revolutions per day: 14.73378782
mean anomaly at epoch: 225.5891°
orbit number at epoch: 69760

The dashed part of the orbit path shows where the satellite is in the earth's shadow,  

DLR